CAPE
2058 2096 2141 2216 2303 2328 2498 2651 2432 2602 2653 2617 2592 2494 2437 2424 2213 2230 2091 2255 2051 1980 2008 1905 1836 1802 1871 1872 1826 1776 1632 1682 1802 1786 1870 1744 1693 1545 1274 1288 1277 1166 955 902 988 727 642 691 901 809 437 688 610 476 522 570 558 462 405 576 594 331
2029 2111 2167 2184 2271 2288 2348 2376 2400 2381 2457 2339 2490 2379 2172 2193 2070 2101 2139 1927 1904 1917 1897 1907 1804 1760 1833 2002 1799 1706 1646 1555 1655 1826 1802 1740 1754 1602 1538 1404 1308 1309 1031 1061 542 215 19 243 551 477 460 422 580 546 513 550 543 479 418 475 464 335
2015 2091 2155 2160 2175 2243 2339 2400 2479 2486 2353 2376 2336 2301 2181 2059 2045 1957 1868 1881 1852 1802 1786 1699 1785 1860 1831 1922 1882 1438 1353 1394 1204 1544 1664 1746 1729 1679 1648 1648 1531 1422 1235 776 458 380 304 0 94 414 454 402 584 588 519 527 530 506 445 430 396 492
1988 2138 2134 2076 2172 2291 2266 2304 2388 2372 2409 2259 2114 2102 2032 2001 1911 1793 1769 1770 1724 1641 1542 1632 2048 1736 1733 1755 1794 1280 1104 1280 1318 1254 1470 1626 1632 1660 1707 1748 1717 1490 1078 941 706 529 402 50 0 345 412 412 478 539 620 538 508 508 473 610 412 629
1974 2066 2035 2099 2190 2230 2162 2175 2250 2244 2264 2165 2002 2008 1967 1943 1753 1583 1604 1648 1553 1439 1379 1609 1773 1646 1661 1589 1607 1378 1240 1096 1282 1307 1206 1438 1387 1510 1550 1526 1488 1323 1165 877 691 674 465 106 0 112 396 417 432 566 613 633 526 484 468 479 437 677
1985 2000 1964 2010 2093 2155 2124 2080 2147 2176 2150 2013 1847 1769 1765 1752 1670 1443 1443 1462 1479 1359 1355 1541 1698 1600 1647 1511 1554 1347 1254 1199 1141 1320 1334 1438 1373 1354 1458 1503 1384 1328 1112 837 627 571 382 12 0 16 263 382 382 498 604 657 597 496 459 466 431 690
1955 1984 1978 1956 2002 1836 1996 1979 2020 2050 2010 1873 1725 1619 1646 1722 1556 1361 1337 1352 1325 1337 1407 1611 1595 1583 1625 1463 1512 1397 1295 1168 1172 1317 1316 1450 1285 1271 1233 1323 1230 1116 929 761 618 490 322 136 279 276 259 314 376 392 590 666 623 486 461 453 438 736
2030 1901 1850 1777 1835 1825 1882 1782 1810 1977 1874 1777 1656 1643 1654 1673 1531 1409 1337 1302 1251 1290 1340 1429 1447 1419 1444 1462 1477 1477 1409 1290 1168 1338 1397 1496 1330 1346 1238 1300 1233 1042 942 757 644 558 373 306 177 0 0 100 340 319 410 699 736 572 484 435 389 764
1734 1766 1657 1620 1678 1680 1661 1562 1761 1847 1766 1787 1608 1634 1672 1608 1561 1487 1408 1367 1326 1222 1232 1353 1355 1259 1290 1398 1436 1458 1300 1274 1338 1313 1360 1501 1356 1369 1201 1165 1142 1034 805 705 607 372 98 31 0 0 0 3 279 281 229 441 699 724 582 451 450 611
1797 1664 1595 1572 1626 1557 1472 1448 1781 1874 1741 1692 1643 1660 1608 1577 1590 1639 1616 1580 1454 1384 1270 1265 1339 1279 1200 1300 1358 1085 1031 1153 1231 1303 1271 1249 1164 1259 1111 1079 1050 979 883 810 578 364 6 0 0 0 0 237 5 148 0 31 475 671 680 564 536 550
1836 1910 1617 1685 1623 1530 1410 1444 1603 1760 1759 1737 1665 1723 1647 1550 1528 1602 1649 1619 1585 1511 1392 1216 1303 1304 1301 1303 1296 1187 1042 1164 1212 1196 1305 1253 1120 1167 1108 968 998 976 940 746 374 391 0 0 0 0 20 258 186 0 5 11 396 667 668 614 618 623
2039 2035 1771 1737 1804 1641 1665 1695 1805 1883 1832 1760 1726 1710 1672 1590 1466 1414 1395 1515 1531 1489 1352 1199 1255 1310 1346 1315 1323 1273 1233 1211 1158 1086 1169 1108 1125 1146 1058 799 562 516 501 351 396 414 0 0 0 0 0 275 284 9 3 18 275 625 658 633 665 664
2239 2190 1917 1829 1826 1759 1809 2009 2074 2034 1986 1881 1762 1672 1625 1729 1596 1540 1455 1392 1404 1356 1173 1108 1154 1298 1309 1324 1281 1276 1167 1031 916 852 770 706 770 730 717 677 631 492 433 359 452 435 0 0 7 26 42 111 253 104 40 64 432 607 660 608 614 642
2385 2404 2222 2058 1958 1939 2197 2330 2250 2156 2057 1915 1785 1797 1824 1769 1699 1494 1314 1459 1508 1356 1244 1222 1131 1093 1201 1252 1155 1068 1076 1020 803 926 802 710 659 784 774 696 682 750 759 500 474 449 375 116 11 7 15 17 6 46 49 165 435 545 602 612 584 616
2518 2565 2512 2416 2375 2451 2493 2463 2309 2164 2075 1935 1922 1917 1886 1794 1727 1776 1614 1532 1488 1309 1265 1206 1204 1077 1116 1050 952 994 917 721 586 693 772 712 667 662 716 728 934 924 788 462 465 444 408 420 317 35 2 0 14 1 50 259 419 502 558 571 541 610
2677 2727 2701 2630 2636 2623 2542 2404 2252 2143 1964 1891 1875 1813 1781 1756 1738 1619 1524 1268 1286 1197 1224 1017 1018 1048 977 889 934 893 744 514 552 644 681 762 903 979 940 1058 977 906 684 464 481 499 452 416 366 276 2 0 0 0 0 15 345 435 530 534 500 578
2829 2841 2807 2721 2652 2548 2440 2262 2201 2131 2046 1988 1821 1740 1671 1676 1663 1557 1422 1364 1139 969 870 844 845 948 962 882 831 810 632 599 625 599 548 649 868 1076 1048 1006 849 747 484 479 461 470 468 414 355 44 29 0 0 28 36 0 114 397 469 488 520 572
2869 2912 2799 2634 2530 2377 2338 2226 2166 2120 1967 1800 1680 1534 1540 1398 1328 1372 1295 1201 1010 890 877 911 858 878 910 862 827 829 766 730 712 658 645 717 871 965 714 823 756 673 567 495 474 516 544 452 381 438 430 253 0 3 13 0 11 385 483 528 574 638
2878 2870 2702 2536 2451 2313 2122 2039 2018 1852 1515 1284 1153 1209 1097 1047 1131 1063 947 825 765 770 726 698 624 627 656 664 708 742 747 781 748 661 758 658 817 983 886 761 484 508 610 565 572 622 564 436 370 29 0 258 440 398 347 320 84 385 410 492 543 587
2894 2828 2650 2425 2368 2075 1894 1684 1369 1125 918 856 879 932 876 834 788 739 648 525 431 438 454 496 553 600 636 659 663 664 670 631 612 641 674 573 539 793 864 840 566 675 652 625 571 680 520 397 97 0 0 0 116 395 416 397 374 439 404 10 168 326
2856 2864 2530 2219 2088 1787 1503 1295 1001 841 709 775 816 765 753 709 692 644 481 395 376 378 0 398 495 524 528 556 600 547 571 555 588 592 624 738 665 722 692 578 594 778 790 617 322 426 495 365 362 348 4 99 8 289 611 444 399 372 334 81 271 343
2748 2663 2330 2063 1988 1516 1234 1008 866 750 707 700 691 650 656 667 675 604 488 425 402 343 0 0 19 390 451 477 480 460 493 537 570 607 663 702 767 756 751 593 558 683 682 698 627 526 449 447 510 502 462 323 70 32 560 630 409 419 428 386 283 4
2548 2347 2016 1871 1853 1272 1148 898 749 656 629 542 574 552 572 464 292 287 0 96 214 270 422 274 2 4 252 438 498 484 499 531 543 609 640 736 722 742 752 650 658 728 738 695 656 460 586 489 618 574 464 458 449 394 393 377 34 69 64 396 410 379
2391 1997 1619 1504 1521 1140 862 724 686 610 525 494 428 400 38 0 0 0 0 0 0 0 0 0 171 252 334 442 510 586 575 559 578 541 538 564 669 699 644 681 638 594 590 656 594 576 610 658 601 585 447 394 24 23 270 0 1 7 108 234 253 294
2200 1601 1171 1285 1208 690 216 542 644 572 504 379 222 34 0 0 0 0 0 0 0 0 0 0 0 104 302 485 686 649 580 489 424 520 576 546 554 611 690 743 774 723 530 633 677 677 545 541 640 621 465 144 144 191 20 122 350 490 380 428 307 151
1932 1286 1082 1174 716 0 0 444 471 352 260 0 0 0 0 0 0 0 0 0 0 0 0 0 0 0 8 395 550 655 432 365 470 594 601 599 647 605 568 568 435 484 648 584 510 518 541 568 575 494 615 450 325 15 34 354 121 260 488 569 474 443
1406 863 936 675 156 0 0 0 0 0 0 0 0 0 0 0 0 0 0 0 0 0 0 0 0 208 389 574 514 410 400 478 573 614 525 173 168 82 476 543 529 536 634 415 386 392 426 576 581 590 553 579 478 325 417 351 175 0 283 484 543 599
972 946 884 73 0 0 0 0 0 0 0 0 0 0 0 0 0 0 0 0 0 0 0 0 0 238 335 302 251 306 413 469 487 372 291 267 250 44 258 402 512 591 664 606 606 540 445 470 394 367 483 551 500 416 327 419 260 90 0 147 183 66
988 932 698 328 0 0 0 0 0 0 0 0 0 0 0 0 0 0 0 0 0 0 0 0 0 0 0 0 24 218 363 401 331 242 236 249 232 0 0 289 378 436 490 496 428 422 405 495 463 498 505 500 541 248 350 385 303 271 4 231 38 22
1003 842 509 0 0 0 0 0 0 0 0 0 0 0 0 0 0 0 0 0 0 0 0 0 0 0 0 0 0 0 0 0 96 114 137 0 0 0 0 0 170 240 270 296 320 354 279 304 358 489 465 427 5 141 70 76 0 0 91 68 2 0
882 430 150 0 0 0 0 0 0 0 0 0 0 0 0 0 0 0 0 0 0 0 0 0 0 0 0 0 0 0 0 0 0 0 0 0 0 0 0 0 0 0 0 0 0 0 22 90 126 227 231 247 307 123 22 19 3 0 12 30 4 2
571 116 0 0 0 0 0 0 0 0 0 0 0 0 0 0 0 0 0 0 0 0 0 0 0 0 0 0 0 0 0 0 0 0 0 0 0 0 0 0 0 0 0 0 0 0 0 0 0 0 28 89 92 0 0 0 0 0 0 0 1 0
324 0 0 0 0 0 0 0 0 0 0 0 0 0 0 0 0 0 0 0 0 0 0 0 0 0 0 0 0 0 0 0 0 0 0 0 0 0 0 0 0 0 0 0 0 0 0 0 0 0 0 0 0 0 0 0 0 0 0 0 0 0
347 0 0 272 298 154 164 172 0 0 0 0 0 0 0 0 0 2 2 0 0 0 0 0 0 0 0 0 0 0 0 0 0 0 0 0 0 0 0 0 0 0 0 0 0 0 0 0 0 0 0 0 0 0 0 0 0 0 0 0 0 0
85 93 100 213 454 505 552 486 293 38 0 0 0 0 0 0 0 3 3 0 0 0 0 0 0 0 0 0 0 0 0 0 0 0 0 0 0 0 0 0 0 0 0 0 0 0 0 0 0 0 0 0 0 0 0 0 0 0 0 0 0 0
220 97 84 562 574 393 167 132 18 22 8 0 0 0 0 0 0 0 0 0 0 0 0 0 0 0 0 0 0 0 0 0 0 0 0 0 0 0 0 0 0 0 0 0 0 0 0 0 0 0 0 0 0 0 0 0 0 0 0 0 0 0
599 404 412 434 375 22 0 0 10 237 238 8 0 0 0 0 0 0 0 0 0 0 0 0 0 0 0 0 0 0 0 0 0 0 0 0 0 0 0 0 0 0 0 0 0 0 0 0 0 0 0 0 0 0 0 0 0 0 0 0 0 0
Wind_Speed
26 28 27 26 27 31 31 29 25 24 25 26 29 31 31 31 30 29 29 30 31 30 29 27 28 26 28 26 26 27 26 26 25 24 24 24 23 22 22 24 25 26 26 27 27 27 26 27 29 28 28 30 29 27 25 25 24 23 22 21 22 22
24 26 25 22 22 25 25 25 22 21 23 26 29 30 29 27 28 27 30 30 29 28 29 28 26 28 25 25 25 26 26 25 24 23 23 22 21 21 21 22 23 25 26 27 28 24 nan 24 27 28 28 29 28 27 26 26 24 23 23 22 22 20
22 21 21 20 21 22 24 24 24 25 26 28 27 29 27 27 28 28 28 28 28 28 28 28 27 26 25 26 24 25 26 23 22 21 21 20 20 19 20 21 22 23 26 27 25 23 23 nan nan 26 26 26 28 28 27 26 25 24 23 22 23 19
21 20 19 18 19 21 23 24 25 26 28 29 28 28 27 26 27 27 27 27 28 28 28 26 25 26 26 25 24 25 25 23 16 19 18 19 18 18 18 19 21 24 24 23 23 22 22 nan nan 22 23 24 26 28 27 26 25 24 24 23 23 19
18 17 19 17 17 19 21 23 25 27 27 27 26 26 26 25 25 27 27 27 27 27 26 26 24 25 26 25 25 24 24 22 18 20 19 19 18 18 20 21 22 22 22 23 23 22 21 21 nan 21 22 21 23 27 26 25 25 25 24 23 25 21
15 16 17 16 16 17 20 21 24 25 26 26 25 25 25 24 25 26 26 26 27 27 26 26 25 25 25 25 25 24 22 21 19 18 19 19 18 19 19 19 19 20 21 22 23 22 21 nan nan nan 21 20 21 25 27 26 25 24 24 23 24 21
12 15 16 16 17 17 20 21 22 23 24 23 23 24 24 24 25 25 25 26 27 27 26 25 25 25 24 24 24 23 22 22 19 19 17 18 18 18 18 18 18 18 19 21 21 20 20 18 17 19 20 19 20 24 26 26 25 23 23 23 24 22
9 12 16 17 18 19 21 21 20 21 22 22 22 23 23 24 25 24 24 25 25 26 26 25 24 24 24 23 23 23 22 22 19 18 17 18 18 18 18 17 17 17 18 19 19 18 18 18 18 nan nan nan 17 19 25 25 25 24 23 22 23 22
6 10 14 17 17 19 20 20 18 20 21 21 22 22 22 23 23 22 22 23 24 25 25 25 24 23 23 23 22 22 22 21 20 18 18 17 18 17 17 16 16 16 17 17 17 17 nan nan nan nan nan nan 17 19 23 26 26 26 24 22 22 22
8 8 12 15 16 18 19 19 18 19 20 21 20 21 20 21 21 21 21 21 22 23 24 24 23 22 23 21 20 21 22 19 19 18 18 18 17 17 15 15 15 16 17 17 16 16 nan nan nan nan nan 16 nan 20 nan nan 26 26 25 24 23 24
6 8 11 13 15 18 19 19 19 20 19 20 19 20 19 19 19 19 20 21 22 22 23 25 23 22 21 20 19 20 19 19 19 18 18 19 19 17 16 15 15 15 15 15 16 16 nan nan nan nan nan 14 17 nan nan nan 26 26 25 26 29 30
6 8 11 15 16 19 20 19 19 20 19 20 19 19 19 19 19 19 21 21 21 21 24 25 23 21 21 20 19 19 19 19 19 20 20 19 18 17 16 16 16 16 15 16 16 17 nan nan nan nan nan 17 17 nan nan nan 21 22 24 27 29 30
7 9 12 14 16 17 17 18 19 18 18 19 19 19 19 19 20 20 20 21 21 23 26 24 22 21 21 21 20 20 20 19 20 20 20 18 17 16 17 18 18 17 17 17 17 17 nan nan nan nan nan 17 17 17 nan nan 19 21 23 25 28 27
10 9 10 14 14 14 16 18 19 18 19 20 20 20 20 20 21 22 22 23 22 25 25 23 21 21 21 21 19 19 20 22 21 20 18 17 15 15 16 17 16 17 17 18 18 17 20 21 nan nan nan nan nan nan nan 17 18 19 21 22 24 25
9 11 13 13 13 14 17 19 19 19 19 20 20 21 21 21 21 21 23 22 23 24 23 23 22 20 20 21 20 18 20 22 22 17 16 14 14 15 17 16 17 18 18 19 19 19 21 21 20 nan nan nan nan nan nan 16 18 19 19 20 21 22
10 13 12 11 13 16 19 20 20 20 19 19 18 19 19 20 20 21 23 23 23 23 23 22 21 20 21 21 19 19 20 20 21 18 14 14 15 16 17 18 17 17 18 18 20 20 20 22 20 20 nan nan nan nan nan nan 18 18 19 19 19 19
7 10 11 12 14 17 20 21 20 19 19 18 18 18 18 19 20 21 21 22 22 21 21 20 20 19 21 21 20 19 20 20 20 17 14 15 18 18 19 20 18 16 18 18 20 21 21 21 21 nan nan nan nan nan nan nan 19 18 19 19 18 18
5 8 10 12 14 18 20 21 19 18 18 18 18 18 18 19 20 20 21 21 22 21 20 18 18 17 20 19 19 19 19 19 18 16 17 19 20 23 23 20 17 18 18 20 20 20 19 19 20 21 22 22 nan nan nan nan nan 21 21 21 20 18
4 5 8 11 15 19 22 21 19 18 18 17 17 17 17 17 17 18 19 20 21 20 19 19 19 18 19 18 18 18 18 18 15 14 22 20 22 23 21 21 18 20 20 19 20 19 19 19 20 nan nan 20 20 20 19 21 nan 24 24 24 24 22
5 4 6 10 15 19 20 21 20 18 18 16 16 16 15 15 15 16 17 19 20 19 18 19 19 18 18 19 18 17 17 15 13 15 18 19 22 21 22 26 17 15 19 21 21 20 20 21 nan nan nan nan 20 20 21 22 23 23 23 nan 24 24
7 6 7 10 13 16 19 20 19 18 18 15 15 15 15 13 13 13 15 17 18 19 nan 19 19 18 18 17 17 17 17 15 14 16 17 19 23 22 25 20 17 15 17 20 20 18 18 20 21 19 nan nan nan 21 20 21 23 22 23 nan 22 25
9 8 7 10 13 16 17 19 19 18 18 16 16 15 16 14 14 14 15 16 17 18 nan nan nan 18 17 18 18 19 18 16 15 16 18 21 21 22 23 19 18 19 18 18 20 19 17 18 19 18 19 18 nan nan 21 21 21 21 21 21 21 nan
11 10 9 12 14 17 19 20 20 19 20 18 15 15 16 14 14 16 nan nan 16 17 18 17 nan nan 18 17 18 19 19 18 17 17 18 20 23 24 22 20 20 21 19 20 22 19 18 16 19 19 20 22 18 19 18 20 nan nan nan 19 19 22
13 11 12 12 17 21 24 24 25 24 22 20 18 16 nan nan nan nan nan nan nan nan nan nan 17 18 20 19 19 19 19 18 18 17 19 21 23 24 23 22 22 21 22 21 20 20 21 20 21 23 22 20 nan nan 19 nan nan nan 20 19 19 21
15 14 13 15 19 22 25 26 24 24 23 22 19 nan nan nan nan nan nan nan nan nan nan nan nan 19 20 21 20 19 19 19 20 21 22 23 24 24 24 24 24 22 22 22 21 22 24 21 21 19 24 23 22 20 nan 19 20 20 19 19 19 20
16 16 16 17 20 nan nan 25 23 23 23 nan nan nan nan nan nan nan nan nan nan nan nan nan nan nan nan 21 20 20 20 20 21 21 22 23 25 26 25 24 23 24 24 25 25 24 24 24 24 24 24 21 20 nan nan 20 22 21 19 23 24 22
17 17 17 17 19 nan nan nan nan nan nan nan nan nan nan nan nan nan nan nan nan nan nan nan nan 21 21 21 22 22 22 22 22 23 23 25 25 nan 25 25 25 24 25 27 27 26 24 25 24 25 25 25 25 24 25 25 21 nan 22 23 25 23
19 19 17 nan nan nan nan nan nan nan nan nan nan nan nan nan nan nan nan nan nan nan nan nan nan 23 21 21 23 24 24 24 24 23 23 25 25 nan 26 26 26 26 27 26 26 26 25 25 21 22 23 24 24 24 26 27 24 nan nan 26 27 nan
18 17 17 16 nan nan nan nan nan nan nan nan nan nan nan nan nan nan nan nan nan nan nan nan nan nan nan nan nan 24 25 25 25 24 24 25 24 nan nan 26 26 26 26 25 25 25 25 24 23 22 23 23 26 28 27 27 25 25 nan 27 nan nan
16 17 18 nan nan nan nan nan nan nan nan nan nan nan nan nan nan nan nan nan nan nan nan nan nan nan nan nan nan nan nan nan nan 25 24 nan nan nan nan nan 24 24 24 26 24 25 25 24 24 24 23 25 nan 27 nan nan nan nan nan nan nan nan
16 19 19 nan nan nan nan nan nan nan nan nan nan nan nan nan nan nan nan nan nan nan nan nan nan nan nan nan nan nan nan nan nan nan nan nan nan nan nan nan nan nan nan nan nan nan nan nan 26 26 25 25 28 28 nan nan nan nan nan nan nan nan
19 21 nan nan nan nan nan nan nan nan nan nan nan nan nan nan nan nan nan nan nan nan nan nan nan nan nan nan nan nan nan nan nan nan nan nan nan nan nan nan nan nan nan nan nan nan nan nan nan nan nan nan nan nan nan nan nan nan nan nan nan nan
24 nan nan nan nan nan nan nan nan nan nan nan nan nan nan nan nan nan nan nan nan nan nan nan nan nan nan nan nan nan nan nan nan nan nan nan nan nan nan nan nan nan nan nan nan nan nan nan nan nan nan nan nan nan nan nan nan nan nan nan nan nan
33 nan nan 26 23 22 22 24 nan nan nan nan nan nan nan nan nan nan nan nan nan nan nan nan nan nan nan nan nan nan nan nan nan nan nan nan nan nan nan nan nan nan nan nan nan nan nan nan nan nan nan nan nan nan nan nan nan nan nan nan nan nan
nan nan 25 25 24 22 20 20 22 nan nan nan nan nan nan nan nan nan nan nan nan nan nan nan nan nan nan nan nan nan nan nan nan nan nan nan nan nan nan nan nan nan nan nan nan nan nan nan nan nan nan nan nan nan nan nan nan nan nan nan nan nan
27 nan nan 24 22 23 23 20 nan nan nan nan nan nan nan nan nan nan nan nan nan nan nan nan nan nan nan nan nan nan nan nan nan nan nan nan nan nan nan nan nan nan nan nan nan nan nan nan nan nan nan nan nan nan nan nan nan nan nan nan nan nan
23 15 16 19 20 nan nan nan nan 15 18 nan nan nan nan nan nan nan nan nan nan nan nan nan nan nan nan nan nan nan nan nan nan nan nan nan nan nan nan nan nan nan nan nan nan nan nan nan nan nan nan nan nan nan nan nan nan nan nan nan nan nan
Wind_Direction
278 282 285 288 280 271 271 273 269 275 277 278 273 272 271 271 270 270 269 267 265 268 272 276 279 283 290 285 288 289 290 289 287 283 278 273 270 268 267 264 262 259 257 254 251 247 244 242 240 234 227 233 242 248 256 256 255 252 251 254 259 265
283 284 284 285 281 276 277 282 269 267 265 269 269 267 263 259 263 258 266 265 268 271 274 278 281 288 284 286 287 291 290 290 288 283 278 274 271 267 265 263 261 260 257 255 254 251 nan 241 241 238 229 229 234 244 252 256 257 254 251 250 255 261
289 291 291 287 282 278 278 271 265 261 259 263 261 258 253 255 256 261 264 269 271 274 278 281 282 286 288 286 286 288 286 282 281 281 278 274 269 265 262 260 259 258 255 254 252 253 252 nan nan 237 230 225 231 235 247 253 255 255 252 248 250 257
291 296 298 290 281 276 271 263 259 257 254 250 247 250 254 258 261 265 268 272 275 278 279 283 290 296 292 282 279 285 285 279 277 279 276 268 268 265 264 260 256 252 252 252 253 250 248 nan nan 239 233 226 227 231 243 250 253 254 252 248 247 253
293 295 297 288 283 272 261 255 252 251 249 247 248 250 254 259 264 268 270 272 276 276 279 279 278 278 279 279 276 272 272 271 269 264 264 256 249 247 247 245 245 247 248 251 250 248 245 242 nan 239 235 227 226 230 238 245 248 250 251 248 246 248
291 296 289 275 269 270 261 254 252 250 248 247 252 256 260 264 266 270 271 274 276 277 279 278 277 279 277 278 276 274 273 270 264 263 262 260 253 249 247 245 245 247 246 249 252 250 247 nan nan nan 236 230 224 228 234 240 244 247 250 250 246 249
265 271 280 270 261 263 258 256 254 253 254 257 260 265 267 268 270 272 274 277 279 280 280 279 279 279 279 279 277 274 274 271 269 267 263 267 259 252 248 247 245 246 248 248 248 247 247 247 243 245 244 235 225 227 232 236 239 244 246 247 244 248
241 271 263 270 265 260 260 262 263 267 262 268 267 268 268 270 272 275 277 281 281 284 285 283 282 281 282 278 277 275 272 271 274 266 263 263 262 253 248 246 246 245 245 247 245 245 244 244 243 nan nan nan 236 228 233 234 236 238 240 242 242 245
286 288 263 261 264 258 265 266 264 264 266 271 264 267 270 272 276 279 281 284 285 285 282 281 281 281 278 276 272 270 266 262 263 266 265 259 256 253 246 244 245 246 249 247 246 243 nan nan nan nan nan nan 237 232 233 236 235 237 239 242 244 246
299 279 269 265 258 264 274 279 273 271 270 268 270 270 273 278 283 286 286 284 282 282 282 281 277 275 276 272 269 264 263 263 262 259 256 254 246 247 246 240 239 241 243 243 243 246 nan nan nan nan nan 254 nan 236 nan nan 236 236 237 240 241 244
289 260 256 258 258 270 276 280 275 267 271 270 274 277 279 282 285 285 282 279 277 278 277 274 273 271 268 267 264 263 262 257 255 253 250 247 241 238 237 239 237 238 237 240 242 247 nan nan nan nan nan 256 252 nan nan nan 234 235 238 238 237 241
290 264 257 254 265 274 279 276 270 266 271 273 279 279 281 281 284 280 277 280 281 280 273 270 270 272 270 267 264 261 259 258 253 247 243 241 239 236 239 241 242 243 245 247 241 244 nan nan nan nan nan 252 252 nan nan nan 243 243 245 247 247 247
265 248 255 264 267 270 270 268 268 271 274 278 280 279 281 282 280 283 281 278 281 279 273 279 281 280 276 268 262 261 259 261 259 251 245 245 242 238 239 239 239 243 243 245 248 247 nan nan nan nan nan 247 251 252 nan nan 254 253 254 255 256 257
260 255 254 256 260 266 268 268 270 274 276 275 276 279 280 277 278 275 276 279 277 274 274 276 279 273 274 269 261 254 254 248 245 248 251 253 252 247 245 243 243 245 247 250 251 248 253 251 nan nan nan nan nan nan nan 250 251 254 256 257 259 260
254 243 246 253 261 265 267 270 271 272 273 275 276 275 275 277 278 282 278 275 273 274 280 280 276 278 278 276 270 263 253 248 251 253 252 252 254 251 250 249 251 250 248 251 255 254 259 258 252 nan nan nan nan nan nan 249 247 248 250 252 256 259
233 243 246 254 259 268 269 270 272 275 274 275 278 276 276 278 280 278 279 279 273 273 277 277 279 282 274 269 269 265 263 261 257 253 250 250 250 251 251 250 254 260 257 256 260 254 254 258 252 251 nan nan nan nan nan nan 248 247 249 253 254 258
229 245 249 253 263 267 268 269 268 270 275 278 279 280 279 281 279 279 278 278 279 283 280 279 277 275 273 272 274 270 264 264 259 257 256 254 247 245 254 252 249 257 263 265 263 261 256 256 255 nan nan nan nan nan nan nan 243 248 249 257 259 259
219 245 260 269 271 269 266 266 267 272 277 278 280 281 282 281 280 280 279 277 277 279 283 283 277 272 271 274 271 269 268 265 263 261 256 247 244 243 248 250 250 245 255 263 263 265 262 260 258 252 245 244 nan nan nan nan nan 247 250 253 254 258
268 273 269 271 272 269 268 268 268 270 269 271 271 272 274 275 279 279 279 282 282 279 280 280 279 277 276 275 268 269 272 273 267 259 252 254 247 251 253 250 248 249 247 253 266 266 268 266 260 nan nan 239 240 242 243 247 nan 247 248 252 254 256
289 303 274 267 268 266 265 266 269 267 263 264 265 271 270 277 281 281 280 280 278 275 274 277 278 277 274 272 273 275 277 273 262 256 256 253 249 250 247 244 252 254 252 249 250 259 263 264 nan nan nan nan 240 239 240 245 248 249 251 nan 257 261
321 318 289 271 263 267 267 264 260 263 271 267 272 274 276 281 283 281 279 277 279 278 nan 277 279 278 278 277 273 272 270 266 255 245 249 250 251 253 249 256 260 247 244 249 254 259 258 261 267 256 nan nan nan 241 240 244 250 250 254 nan 256 258
310 306 283 271 268 262 265 276 279 280 278 275 276 279 282 283 287 282 279 282 283 281 nan nan nan 275 271 269 270 268 269 265 258 247 242 243 250 259 265 266 265 258 246 253 259 266 263 259 257 268 265 254 nan nan 247 246 248 250 252 255 258 nan
299 292 275 269 267 267 263 266 272 279 281 279 277 281 283 280 285 284 nan nan 282 284 284 280 nan nan 272 268 266 267 266 264 260 257 252 251 251 258 266 265 260 261 253 247 257 261 262 263 267 264 259 261 256 254 251 252 nan nan nan 252 259 262
289 281 277 265 260 258 263 266 268 276 275 282 287 282 nan nan nan nan nan nan nan nan nan nan 281 278 271 269 268 267 269 269 266 261 256 255 255 257 258 259 259 259 265 258 260 264 260 262 266 274 264 262 nan nan 253 nan nan nan 254 251 251 255
287 285 275 269 268 269 268 264 268 270 275 276 271 nan nan nan nan nan nan nan nan nan nan nan nan 273 272 269 266 267 266 265 264 259 254 252 253 255 253 253 260 259 260 266 264 265 264 264 267 265 271 267 259 257 nan 261 256 258 253 261 253 249
270 270 273 272 276 nan nan 280 279 282 282 nan nan nan nan nan nan nan nan nan nan nan nan nan nan nan nan 271 266 260 262 262 259 257 256 255 255 255 256 257 262 265 264 264 265 267 267 266 264 258 262 265 264 nan nan 267 264 267 262 256 251 246
269 263 264 271 275 nan nan nan nan nan nan nan nan nan nan nan nan nan nan nan nan nan nan nan nan 273 272 267 262 258 258 257 256 256 257 258 257 nan 260 259 261 265 263 266 266 265 268 265 261 262 263 260 258 259 261 265 264 nan 263 257 250 249
252 260 262 nan nan nan nan nan nan nan nan nan nan nan nan nan nan nan nan nan nan nan nan nan nan 269 265 265 265 261 257 255 253 251 251 252 255 nan 259 257 257 258 260 262 267 268 268 268 266 263 262 262 262 261 258 258 259 nan nan 264 255 nan
248 261 271 276 nan nan nan nan nan nan nan nan nan nan nan nan nan nan nan nan nan nan nan nan nan nan nan nan nan 258 254 251 250 248 249 250 249 nan nan 259 259 259 262 261 263 268 268 266 268 266 266 265 262 257 254 255 256 257 nan 262 nan nan
270 275 278 nan nan nan nan nan nan nan nan nan nan nan nan nan nan nan nan nan nan nan nan nan nan nan nan nan nan nan nan nan nan 246 245 nan nan nan nan nan 256 261 263 263 258 262 265 267 265 264 263 265 nan 262 nan nan nan nan nan nan nan nan
279 274 273 nan nan nan nan nan nan nan nan nan nan nan nan nan nan nan nan nan nan nan nan nan nan nan nan nan nan nan nan nan nan nan nan nan nan nan nan nan nan nan nan nan nan nan nan nan 264 263 260 261 268 275 nan nan nan nan nan nan nan nan
264 261 nan nan nan nan nan nan nan nan nan nan nan nan nan nan nan nan nan nan nan nan nan nan nan nan nan nan nan nan nan nan nan nan nan nan nan nan nan nan nan nan nan nan nan nan nan nan nan nan nan nan nan nan nan nan nan nan nan nan nan nan
272 nan nan nan nan nan nan nan nan nan nan nan nan nan nan nan nan nan nan nan nan nan nan nan nan nan nan nan nan nan nan nan nan nan nan nan nan nan nan nan nan nan nan nan nan nan nan nan nan nan nan nan nan nan nan nan nan nan nan nan nan nan
261 nan nan 268 266 269 278 283 nan nan nan nan nan nan nan nan nan nan nan nan nan nan nan nan nan nan nan nan nan nan nan nan nan nan nan nan nan nan nan nan nan nan nan nan nan nan nan nan nan nan nan nan nan nan nan nan nan nan nan nan nan nan
nan nan 282 282 279 275 275 268 267 nan nan nan nan nan nan nan nan nan nan nan nan nan nan nan nan nan nan nan nan nan nan nan nan nan nan nan nan nan nan nan nan nan nan nan nan nan nan nan nan nan nan nan nan nan nan nan nan nan nan nan nan nan
282 nan nan 279 286 293 288 272 nan nan nan nan nan nan nan nan nan nan nan nan nan nan nan nan nan nan nan nan nan nan nan nan nan nan nan nan nan nan nan nan nan nan nan nan nan nan nan nan nan nan nan nan nan nan nan nan nan nan nan nan nan nan
282 275 297 301 297 nan nan nan nan 281 279 nan nan nan nan nan nan nan nan nan nan nan nan nan nan nan nan nan nan nan nan nan nan nan nan nan nan nan nan nan nan nan nan nan nan nan nan nan nan nan nan nan nan nan nan nan nan nan nan nan nan nan